,,,,,,,���z��,���z��,����,����,,
DATE_TIME,�G���A���v�kMWh�l,���q�́kMWh�l,�ΉkMWh�l,���́kMWh�l,�n�M�kMWh�l,�o�C�I�}�X�kMWh�l,���сkMWh�l,�}���ʁkMWh�l,���сkMWh�l,�}���ʁkMWh�l,�g�����kMWh�l,�A�n���kMWh�l
2023/4/1 0:00,7386,3233,4610,259,153,564,0,0,83,0,68,-1584
2023/4/1 1:00,7274,3237,4559,265,153,560,0,0,80,0,-22,-1558
2023/4/1 2:00,7706,3233,4870,302,153,564,0,0,80,0,46,-1542
2023/4/1 3:00,8273,3235,4899,402,154,565,0,0,100,0,588,-1670
2023/4/1 4:00,8566,3236,4697,729,154,563,0,0,96,0,571,-1480
2023/4/1 5:00,8364,3233,4253,670,154,560,0,0,91,0,1013,-1610
2023/4/1 6:00,7868,3236,3552,443,154,542,180,0,93,0,1010,-1342
2023/4/1 7:00,7431,3234,3074,333,153,497,1549,0,83,0,130,-1622
2023/4/1 8:00,7397,3234,2573,280,152,422,3397,95,7,52,-872,-1796
2023/4/1 9:00,7891,3235,2537,251,152,417,4205,1353,5,87,-1095,-1816
2023/4/1 10:00,7922,3235,2515,251,152,416,4377,2804,5,108,-1155,-1874
2023/4/1 11:00,8022,3235,2678,251,152,406,4273,3871,5,132,-1242,-1736
2023/4/1 12:00,7869,3235,2403,221,151,406,4173,3822,3,156,-1077,-1646
2023/4/1 13:00,7869,3235,2499,245,151,405,4129,2894,2,129,-1067,-1730
2023/4/1 14:00,7803,3233,2708,254,151,401,3635,1946,2,97,-783,-1798
2023/4/1 15:00,7691,3235,2969,255,151,405,3453,480,2,93,-933,-1846
2023/4/1 16:00,7759,3235,3570,258,152,406,2290,65,4,80,-332,-1824
2023/4/1 17:00,7958,3233,4135,547,152,457,941,0,87,0,-2,-1592
2023/4/1 18:00,8274,3234,4767,872,152,494,81,0,99,0,131,-1556
2023/4/1 19:00,8334,3232,4753,728,153,504,0,0,81,0,363,-1480
2023/4/1 20:00,8066,3236,4680,552,153,503,0,0,87,0,453,-1598
2023/4/1 21:00,7784,3234,4597,351,154,503,0,0,93,0,594,-1742
2023/4/1 22:00,7498,3233,4212,279,152,501,0,0,91,0,560,-1530
2023/4/1 23:00,7237,3232,4263,283,152,504,0,0,112,0,327,-1636
2023/4/2 0:00,6832,3236,4240,240,153,505,0,0,112,0,-8,-1646
2023/4/2 1:00,6778,3234,4183,255,154,500,0,0,106,0,-22,-1632
2023/4/2 2:00,7173,3233,4390,288,154,502,0,0,125,0,223,-1742
2023/4/2 3:00,7774,3235,4449,500,154,502,0,0,142,0,644,-1852
2023/4/2 4:00,8060,3235,4398,777,153,500,0,0,134,0,703,-1840
2023/4/2 5:00,7855,3236,4071,521,153,501,0,0,108,0,867,-1602
2023/4/2 6:00,7243,3234,3419,394,152,497,131,0,119,0,849,-1552
2023/4/2 7:00,6779,3234,3085,275,152,457,1268,0,107,0,-75,-1724
2023/4/2 8:00,6810,3235,2545,244,152,397,2567,543,7,82,-561,-1776
2023/4/2 9:00,7051,3235,2617,275,152,392,2852,1822,4,112,-672,-1804
2023/4/2 10:00,7074,3235,2359,229,152,391,3482,2822,4,122,-908,-1870
2023/4/2 11:00,7209,3234,2370,216,152,389,4172,3360,3,128,-1431,-1896
2023/4/2 12:00,7342,3232,2466,211,152,392,4360,3712,5,176,-1610,-1866
2023/4/2 13:00,7288,3234,2452,232,152,386,3992,3796,5,156,-1333,-1832
2023/4/2 14:00,7167,3233,2523,233,151,386,3731,3299,5,155,-1285,-1810
2023/4/2 15:00,7070,3232,2669,218,152,391,3555,1872,5,146,-1310,-1842
2023/4/2 16:00,7215,3234,3053,229,152,392,3340,204,5,147,-1340,-1850
2023/4/2 17:00,7654,3231,3958,298,152,436,1635,0,170,0,-322,-1904
2023/4/2 18:00,8036,3232,4686,821,152,474,167,0,191,0,247,-1934
2023/4/2 19:00,8206,3230,4667,790,152,482,0,0,208,0,315,-1638
2023/4/2 20:00,7954,3233,4375,564,152,483,0,0,206,0,509,-1568
2023/4/2 21:00,7671,3233,4069,346,152,478,0,0,203,0,576,-1386
2023/4/2 22:00,7356,3233,3659,293,152,478,0,0,192,0,539,-1190
2023/4/2 23:00,7089,3233,3833,254,153,481,0,0,181,0,360,-1406
2023/4/3 0:00,6711,3233,3540,248,153,478,0,0,175,0,0,-1116
2023/4/3 1:00,6669,3233,3486,232,153,476,0,0,153,0,-28,-1036
2023/4/3 2:00,7190,3233,4168,267,154,476,0,0,154,0,288,-1550
2023/4/3 3:00,7874,3233,4506,287,154,477,0,0,130,0,527,-1440
2023/4/3 4:00,8264,3234,4649,547,154,478,0,0,119,0,681,-1598
2023/4/3 5:00,8375,3234,4377,658,153,478,0,0,108,0,793,-1426
2023/4/3 6:00,8216,3233,4147,457,153,474,257,0,94,0,967,-1566
2023/4/3 7:00,7920,3233,3328,266,153,440,2012,0,86,0,254,-1852
2023/4/3 8:00,8040,3233,2742,252,152,381,4158,175,89,0,-679,-2288
2023/4/3 9:00,8655,3234,2677,230,152,381,5376,1118,100,0,-1073,-2422
2023/4/3 10:00,8822,3234,2545,247,152,381,6012,2109,96,0,-1365,-2480
2023/4/3 11:00,9036,3234,2789,204,152,382,6180,2887,107,0,-1594,-2418
2023/4/3 12:00,8767,3232,2609,188,152,385,5997,3373,121,0,-1579,-2338
2023/4/3 13:00,8887,3233,2710,188,152,382,6080,2699,127,0,-1567,-2418
2023/4/3 14:00,8864,3231,2658,223,152,380,5900,1757,134,0,-1390,-2424
2023/4/3 15:00,8772,3231,2759,217,151,381,5302,698,116,0,-1021,-2364
2023/4/3 16:00,8693,3232,3235,208,151,436,3898,0,114,0,-421,-2160
2023/4/3 17:00,8808,3228,4333,281,151,475,1524,0,110,0,414,-1708
2023/4/3 18:00,8902,3231,5256,510,151,480,136,0,100,0,976,-1938
2023/4/3 19:00,8966,3229,5360,633,153,480,0,0,77,0,836,-1802
2023/4/3 20:00,8617,3234,5253,600,152,477,0,0,71,0,762,-1932
2023/4/3 21:00,8302,3232,5214,546,153,474,0,0,60,0,769,-2146
2023/4/3 22:00,8055,3233,5021,325,153,475,0,0,56,0,654,-1862
2023/4/3 23:00,7755,3233,4961,247,154,478,0,0,72,0,212,-1602
2023/4/4 0:00,7266,3233,4785,229,154,478,0,0,83,0,4,-1700
2023/4/4 1:00,7206,3233,4590,223,154,475,0,0,73,0,-12,-1530
2023/4/4 2:00,7673,3235,5233,267,154,475,0,0,67,0,-6,-1752
2023/4/4 3:00,8257,3235,5911,302,153,479,0,0,66,0,155,-2044
2023/4/4 4:00,8619,3234,5898,476,153,478,0,0,84,0,344,-2048
2023/4/4 5:00,8581,3233,5785,663,153,479,0,0,92,0,240,-2064
2023/4/4 6:00,8336,3234,5288,508,153,480,222,0,104,0,205,-1858
2023/4/4 7:00,8003,3234,4213,273,154,471,1325,0,96,0,75,-1838
2023/4/4 8:00,8007,3233,2973,249,153,434,3535,1,93,0,-381,-2282
2023/4/4 9:00,8553,3233,2581,244,153,419,5364,196,104,0,-1079,-2466
2023/4/4 10:00,8992,3233,2633,243,152,421,5936,885,113,0,-1241,-2498
2023/4/4 11:00,8991,3233,2891,201,152,421,5455,1642,112,0,-1062,-2412
2023/4/4 12:00,8582,3233,2723,197,151,426,5077,1545,111,0,-1012,-2324
2023/4/4 13:00,8791,3234,3000,183,152,420,4934,835,118,0,-844,-2406
2023/4/4 14:00,8751,3234,3264,213,152,407,4838,1,124,0,-1079,-2402
2023/4/4 15:00,8547,3232,3832,227,152,384,3590,1,130,0,-626,-2374
2023/4/4 16:00,8794,3234,4368,220,152,432,2283,0,144,0,-247,-1792
2023/4/4 17:00,8827,3233,5363,292,152,470,861,0,149,0,-79,-1614
2023/4/4 18:00,9125,3232,6248,558,151,480,66,0,157,0,3,-1770
2023/4/4 19:00,9045,3232,6198,674,151,480,0,0,172,0,0,-1862
2023/4/4 20:00,8683,3233,5855,551,152,479,0,0,201,0,0,-1788
2023/4/4 21:00,8300,3231,5688,443,152,478,0,0,211,0,-3,-1900
2023/4/4 22:00,8001,3233,5474,307,152,476,0,0,202,0,1,-1844
2023/4/4 23:00,7721,3231,5039,226,152,480,0,0,217,0,0,-1624
2023/4/5 0:00,7297,3232,4634,230,152,479,0,0,186,0,-36,-1580
2023/4/5 1:00,7219,3229,4625,245,152,477,0,0,191,0,-268,-1432
2023/4/5 2:00,7575,3233,4791,364,152,479,0,0,197,0,-41,-1600
2023/4/5 3:00,8155,3233,5422,584,152,479,0,0,203,0,-8,-1910
2023/4/5 4:00,8456,3233,5616,770,152,481,0,0,218,0,0,-2014
2023/4/5 5:00,8411,3233,5527,668,151,481,0,0,263,0,0,-1912
2023/4/5 6:00,8149,3233,5485,486,151,483,39,0,244,0,4,-1976
2023/4/5 7:00,8227,3234,5343,482,152,482,314,0,249,0,-1,-2028
2023/4/5 8:00,8849,3232,5804,384,151,479,587,0,243,0,139,-2170
2023/4/5 9:00,9292,3208,6095,473,151,476,949,0,239,0,19,-2318
2023/4/5 10:00,9294,3157,5682,453,151,476,1302,0,232,0,1,-2160
2023/4/5 11:00,9402,3174,5741,262,151,481,1522,0,258,0,1,-2188
2023/4/5 12:00,8995,3201,5574,229,150,483,1252,0,254,0,0,-2148
2023/4/5 13:00,9299,3220,5608,249,150,476,1093,0,278,0,7,-1782
2023/4/5 14:00,9341,3232,5795,242,150,479,852,0,297,0,0,-1706
2023/4/5 15:00,9310,3232,6005,245,151,477,619,0,289,0,8,-1716
2023/4/5 16:00,9333,3235,6307,310,150,480,387,0,284,0,90,-1910
2023/4/5 17:00,9342,3232,6504,363,150,484,135,0,285,0,17,-1828
2023/4/5 18:00,9491,3232,6450,611,150,482,6,0,300,0,6,-1746
2023/4/5 19:00,9309,3233,6225,648,150,481,0,0,284,0,-6,-1706
2023/4/5 20:00,8968,3230,5300,606,150,477,0,0,275,0,8,-1078
2023/4/5 21:00,8548,3233,5092,458,150,479,0,0,266,0,8,-1138
2023/4/5 22:00,8265,3231,4987,323,150,477,0,0,271,0,-6,-1168
2023/4/5 23:00,7913,3232,4383,310,150,478,0,0,279,0,1,-920
2023/4/6 0:00,7519,3232,4430,348,150,479,0,0,264,0,-10,-1374
2023/4/6 1:00,7367,3233,4213,364,150,475,0,0,243,0,-11,-1300
2023/4/6 2:00,7769,3233,4547,379,150,477,0,0,204,0,-13,-1208
2023/4/6 3:00,8302,3231,4788,711,150,482,0,0,194,0,-4,-1250
2023/4/6 4:00,8625,3232,5020,845,150,482,0,0,189,0,-11,-1282
2023/4/6 5:00,8505,3234,5126,722,150,481,0,0,192,0,-2,-1398
2023/4/6 6:00,8166,3233,5040,589,150,479,45,0,216,0,-2,-1584
2023/4/6 7:00,8300,3231,5020,541,149,482,282,0,214,0,3,-1622
2023/4/6 8:00,8856,3233,5092,471,149,477,787,0,197,0,-4,-1546
2023/4/6 9:00,9325,3234,5000,428,149,474,1323,0,161,0,-12,-1432
2023/4/6 10:00,9253,3231,5011,413,148,472,1594,0,139,0,-13,-1742
2023/4/6 11:00,9124,3233,4207,421,148,476,2227,0,108,0,-130,-1566
2023/4/6 12:00,8839,3232,3760,405,148,476,2472,0,103,0,-243,-1514
2023/4/6 13:00,9270,3230,4349,406,148,473,1963,0,122,0,85,-1506
2023/4/6 14:00,9324,3231,4904,422,145,476,1302,0,138,0,10,-1304
2023/4/6 15:00,9223,3232,5245,455,145,476,840,0,123,0,-17,-1276
2023/4/6 16:00,9275,3231,5614,496,149,477,557,0,83,0,-14,-1318
2023/4/6 17:00,9328,3231,5763,618,148,478,233,0,73,0,80,-1296
2023/4/6 18:00,9475,3230,5768,924,149,478,25,0,66,0,113,-1278
2023/4/6 19:00,9286,3231,5576,910,149,479,0,0,45,0,98,-1202
2023/4/6 20:00,8878,3234,5262,747,149,478,0,0,36,0,154,-1182
2023/4/6 21:00,8481,3230,4995,577,149,475,0,0,27,0,144,-1116
2023/4/6 22:00,8181,3232,4963,539,149,476,0,0,38,0,0,-1216
2023/4/6 23:00,7900,3233,4667,530,149,477,0,0,68,0,12,-1236
2023/4/7 0:00,7455,3233,4284,531,149,478,0,0,78,0,6,-1304
2023/4/7 1:00,7367,3231,4399,539,149,477,0,0,97,0,1,-1526
2023/4/7 2:00,7710,3230,4689,697,149,480,0,0,106,0,133,-1774
2023/4/7 3:00,8312,3232,4701,773,149,477,0,0,115,0,611,-1746
2023/4/7 4:00,8645,3232,4892,782,150,477,0,0,126,0,828,-1842
2023/4/7 5:00,8544,3232,4657,824,150,477,0,0,115,0,719,-1630
2023/4/7 6:00,8385,3233,3925,649,150,479,12,0,90,0,707,-860
2023/4/7 7:00,8519,3232,4035,570,150,479,139,0,84,0,614,-784
2023/4/7 8:00,9177,3232,4159,580,150,465,404,0,91,0,470,-374
2023/4/7 9:00,9638,3234,4342,569,152,417,722,1,91,0,271,-160
2023/4/7 10:00,9565,3233,4300,582,152,403,1293,1,109,0,39,-546
2023/4/7 11:00,9416,3234,3460,596,152,405,1968,1,146,0,-213,-332
2023/4/7 12:00,9082,3233,3493,643,152,409,3070,1,149,0,199,-2266
2023/4/7 13:00,9327,3232,3148,695,152,408,4053,1,158,0,-3,-2516
2023/4/7 14:00,9151,3234,2899,764,152,406,5050,1,151,0,-1033,-2472
2023/4/7 15:00,8773,3233,2966,781,152,407,4887,1,161,0,-1434,-2380
2023/4/7 16:00,8800,3232,3482,796,152,444,3505,0,178,0,-613,-2376
2023/4/7 17:00,8945,3233,4751,938,152,476,1592,0,164,0,-55,-2306
2023/4/7 18:00,9208,3231,5367,1111,152,482,169,0,154,0,488,-1946
2023/4/7 19:00,9286,3232,5145,1113,153,482,0,0,190,0,479,-1508
2023/4/7 20:00,9023,3230,4950,1064,154,480,0,0,211,0,312,-1378
2023/4/7 21:00,8627,3234,4781,1018,154,477,0,0,214,0,239,-1490
2023/4/7 22:00,8298,3232,4452,954,154,478,0,0,218,0,192,-1382
2023/4/7 23:00,7946,3235,4443,877,154,479,0,0,221,0,145,-1608
2023/4/8 0:00,7463,3233,4024,835,154,481,0,0,228,0,-2,-1490
2023/4/8 1:00,7296,3233,3788,792,154,476,0,0,266,0,-31,-1382
2023/4/8 2:00,7685,3233,4230,863,154,478,0,0,281,0,52,-1606
2023/4/8 3:00,8292,3232,4601,902,154,483,0,0,269,0,519,-1868
2023/4/8 4:00,8603,3232,4636,931,154,484,0,0,262,0,764,-1860
2023/4/8 5:00,8524,3232,4476,913,154,481,0,0,269,0,799,-1800
2023/4/8 6:00,8080,3231,3819,935,154,476,336,0,245,0,616,-1732
2023/4/8 7:00,7609,3233,2936,767,155,443,2187,84,235,0,-511,-1836
2023/4/8 8:00,7594,3233,2575,739,155,392,3460,1346,247,0,-1329,-1878
2023/4/8 9:00,7859,3233,2535,683,155,390,3832,3368,258,0,-1379,-1848
2023/4/8 10:00,8030,3232,2526,653,154,392,4072,4934,224,0,-1349,-1874
2023/4/8 11:00,8131,3233,2466,627,154,393,4552,5414,217,0,-1771,-1740
2023/4/8 12:00,8039,3233,2486,646,155,396,4608,5637,245,0,-1988,-1742
2023/4/8 13:00,7849,3232,2498,625,154,392,4398,5269,290,0,-1934,-1806
2023/4/8 14:00,7664,3232,2491,632,154,389,4019,4509,282,0,-1727,-1808
2023/4/8 15:00,7587,3232,2583,640,155,387,3203,3516,276,0,-1115,-1774
2023/4/8 16:00,7689,3233,2601,801,155,392,2945,1341,252,0,-806,-1884
2023/4/8 17:00,8067,3232,3066,935,155,438,1754,109,226,0,159,-1898
2023/4/8 18:00,8546,3231,3724,1068,155,473,201,0,194,0,1322,-1822
2023/4/8 19:00,8831,3230,4369,1077,155,482,0,0,160,0,690,-1332
2023/4/8 20:00,8686,3232,3881,1075,155,483,0,0,122,0,804,-1066
2023/4/8 21:00,8496,3231,3695,968,155,484,0,0,93,0,784,-914
2023/4/8 22:00,8237,3232,3668,910,155,482,0,0,72,0,682,-964
2023/4/8 23:00,7966,3231,3735,870,155,484,0,0,70,0,467,-1046
2023/4/9 0:00,7555,3231,3910,728,155,485,0,0,58,0,510,-1522
2023/4/9 1:00,7478,3231,4114,685,155,480,0,0,57,0,332,-1576
2023/4/9 2:00,7899,3233,4135,704,155,483,0,0,47,0,644,-1502
2023/4/9 3:00,8580,3233,4159,996,155,482,0,0,35,0,958,-1438
2023/4/9 4:00,8908,3233,4155,1032,155,484,0,0,27,0,1102,-1280
2023/4/9 5:00,8861,3231,4158,975,155,482,0,0,23,0,963,-1126
2023/4/9 6:00,8325,3231,3598,910,155,484,398,0,16,0,443,-910
2023/4/9 7:00,7515,3231,2805,710,155,447,2280,94,5,0,-886,-1232
2023/4/9 8:00,7304,3232,2319,628,155,388,3397,1460,0,3,-1091,-1724
2023/4/9 9:00,7527,3231,2073,545,154,388,3588,3608,0,0,-1154,-1298
2023/4/9 10:00,7498,3231,2052,516,154,387,3769,5005,0,8,-1279,-1332
2023/4/9 11:00,7471,3231,1903,485,154,388,3908,5721,1,19,-1311,-1288
2023/4/9 12:00,7409,3233,1915,496,154,390,3934,5848,1,34,-1406,-1308
2023/4/9 13:00,7255,3233,1935,465,153,387,3778,5564,2,62,-1316,-1382
2023/4/9 14:00,7076,3231,1966,442,153,391,3323,4964,3,91,-1011,-1422
2023/4/9 15:00,7080,3232,2147,490,153,402,2818,3713,3,102,-685,-1480
2023/4/9 16:00,7244,3232,2297,533,152,409,2833,1388,3,84,-325,-1890
2023/4/9 17:00,7767,3230,2863,754,152,459,1831,0,29,0,17,-1568
2023/4/9 18:00,8254,3230,3961,998,152,498,201,0,22,0,666,-1474
2023/4/9 19:00,8478,3229,4198,1036,154,502,0,0,18,0,609,-1268
2023/4/9 20:00,8373,3231,4191,1015,154,501,0,0,11,0,500,-1230
2023/4/9 21:00,8060,3230,4172,862,154,501,0,0,6,0,377,-1242
2023/4/9 22:00,7832,3231,4160,682,154,501,0,0,6,0,334,-1236
2023/4/9 23:00,7513,3231,4130,573,154,501,0,0,6,0,116,-1198
2023/4/10 0:00,7142,3230,3843,496,154,501,0,0,11,0,-5,-1088
2023/4/10 1:00,7132,3233,4099,494,154,497,0,0,13,0,-18,-1340
2023/4/10 2:00,7642,3231,4713,608,154,500,0,0,19,0,101,-1684
2023/4/10 3:00,8340,3232,4845,843,154,501,0,0,17,0,498,-1750
2023/4/10 4:00,8717,3232,4833,1005,154,499,0,0,20,0,742,-1768
2023/4/10 5:00,8918,3233,4828,959,153,495,0,0,14,0,984,-1748
2023/4/10 6:00,8812,3235,4593,969,153,493,381,0,14,0,668,-1694
2023/4/10 7:00,8343,3233,3264,705,153,485,2080,0,8,0,-277,-1308
2023/4/10 8:00,8360,3234,2444,531,152,411,4327,91,6,0,-823,-1922
2023/4/10 9:00,8979,3234,2252,442,151,381,5831,702,7,0,-881,-2438
2023/4/10 10:00,9122,3235,2244,446,151,375,6238,1758,17,0,-1096,-2488
2023/4/10 11:00,9097,3234,2281,425,151,379,6334,2368,26,0,-1299,-2434
2023/4/10 12:00,8676,3234,2238,417,151,380,5900,3025,25,0,-1437,-2232
2023/4/10 13:00,8970,3231,2365,391,151,390,6073,2721,23,0,-1380,-2274
2023/4/10 14:00,8830,3234,2373,387,151,397,5432,2259,36,0,-1200,-1980
2023/4/10 15:00,8791,3233,2507,444,151,398,4874,1153,34,0,-860,-1990
2023/4/10 16:00,8819,3234,3076,474,151,451,3767,104,25,0,-709,-1650
2023/4/10 17:00,8883,3229,3896,682,152,495,1591,0,22,0,198,-1382
2023/4/10 18:00,9102,3231,4909,929,152,505,182,0,27,0,591,-1424
2023/4/10 19:00,9197,3231,5066,952,152,502,0,0,37,0,615,-1358
2023/4/10 20:00,8877,3233,4813,878,153,503,0,0,46,0,485,-1234
2023/4/10 21:00,8515,3233,4641,812,152,501,0,0,78,0,458,-1360
2023/4/10 22:00,8213,3231,4599,544,151,501,0,0,96,0,291,-1200
2023/4/10 23:00,7863,3233,4386,427,152,503,0,0,113,0,101,-1052
2023/4/11 0:00,7375,3232,4374,413,152,500,0,0,124,0,66,-1486
2023/4/11 1:00,7307,3232,4429,405,151,499,0,0,112,0,-11,-1510
2023/4/11 2:00,7762,3233,4662,473,151,500,0,0,99,0,66,-1422
2023/4/11 3:00,8351,3233,4576,873,151,500,0,0,86,0,128,-1196
2023/4/11 4:00,8698,3232,4658,945,151,501,0,0,62,0,305,-1156
2023/4/11 5:00,8648,3233,4639,933,150,502,0,0,56,0,369,-1234
2023/4/11 6:00,8412,3233,3958,844,149,491,301,0,53,0,499,-1116
2023/4/11 7:00,8190,3234,3074,656,146,418,1691,0,50,0,37,-1116
2023/4/11 8:00,8319,3232,2822,532,146,394,3124,220,41,0,-464,-1508
2023/4/11 9:00,8934,3211,2871,430,146,390,4036,380,61,0,101,-2312
2023/4/11 10:00,8947,3141,2833,384,146,388,4331,951,74,0,-8,-2342
2023/4/11 11:00,9140,3160,2628,377,146,393,4776,1556,80,0,-58,-2362
2023/4/11 12:00,8881,3192,2438,379,146,394,5071,2077,102,0,-483,-2358
2023/4/11 13:00,9053,3216,2387,370,146,391,5348,1871,137,0,-532,-2410
2023/4/11 14:00,8964,3233,2594,370,146,390,4868,1732,137,0,-764,-2010
2023/4/11 15:00,8814,3235,2768,399,145,392,4123,1096,144,0,-616,-1776
2023/4/11 16:00,8897,3233,3386,423,145,409,2949,241,150,0,-168,-1630
2023/4/11 17:00,8928,3231,4352,653,146,477,1402,0,139,0,-50,-1422
2023/4/11 18:00,9113,3232,5062,910,146,498,163,0,132,0,376,-1406
2023/4/11 19:00,9134,3230,5082,942,146,501,0,0,135,0,550,-1452
2023/4/11 20:00,8771,3233,5027,917,146,499,0,0,128,0,407,-1586
2023/4/11 21:00,8354,3232,4935,691,146,496,0,0,126,0,224,-1496
2023/4/11 22:00,8132,3233,4892,505,146,496,0,0,123,0,115,-1378
2023/4/11 23:00,7782,3236,4598,418,146,500,0,0,130,0,16,-1262
2023/4/12 0:00,7344,3232,4298,381,146,497,0,0,104,0,8,-1322
2023/4/12 1:00,7276,3234,4278,412,146,496,0,0,91,0,-9,-1372
2023/4/12 2:00,7652,3233,4442,613,146,495,0,0,90,0,-17,-1350
2023/4/12 3:00,8210,3232,4743,894,146,497,0,0,82,0,340,-1724
2023/4/12 4:00,8542,3234,4731,927,146,496,0,0,71,0,557,-1620
2023/4/12 5:00,8422,3233,4720,880,146,491,0,0,51,0,397,-1496
2023/4/12 6:00,8179,3232,4652,900,146,500,57,0,42,0,174,-1524
2023/4/12 7:00,8296,3232,4464,689,146,493,394,0,42,0,18,-1182
2023/4/12 8:00,8698,3234,3802,477,146,456,1133,0,50,0,0,-600
2023/4/12 9:00,8822,3233,3040,416,147,393,2345,1,81,0,-453,-380
2023/4/12 10:00,8715,3232,2702,374,151,391,3977,1,101,0,-211,-2002
2023/4/12 11:00,9108,3234,2396,343,151,394,5067,414,118,0,-153,-2442
2023/4/12 12:00,8905,3231,2223,357,151,396,5670,1565,94,0,-913,-2304
2023/4/12 13:00,8999,3232,2433,348,151,385,5757,1780,79,0,-998,-2388
2023/4/12 14:00,8969,3232,2446,347,152,388,5800,1397,75,0,-1049,-2422
2023/4/12 15:00,8843,3232,2597,365,151,393,5435,442,60,0,-996,-2394
2023/4/12 16:00,8773,3232,3382,413,153,414,4092,0,56,0,-637,-2332
2023/4/12 17:00,8875,3232,4385,587,153,485,1788,0,55,0,-120,-1690
2023/4/12 18:00,8960,3229,5081,909,154,501,219,0,69,0,528,-1730
2023/4/12 19:00,9077,3232,5096,962,153,501,0,0,45,0,692,-1604
2023/4/12 20:00,8812,3230,4861,875,154,497,0,0,29,0,540,-1374
2023/4/12 21:00,8441,3232,4800,756,154,499,0,0,35,0,367,-1402
2023/4/12 22:00,8202,3232,4858,539,154,499,0,0,27,0,249,-1356
2023/4/12 23:00,7956,3233,4834,435,154,501,0,0,24,0,91,-1316
2023/4/13 0:00,7481,3232,4543,376,154,501,0,0,31,0,-4,-1352
2023/4/13 1:00,7450,3232,4525,384,154,499,0,0,22,0,-28,-1338
2023/4/13 2:00,7925,3231,4876,468,154,503,0,0,15,0,54,-1376
2023/4/13 3:00,8585,3232,4917,702,154,505,0,0,15,0,406,-1346
2023/4/13 4:00,9022,3229,4748,947,154,502,0,0,24,0,682,-1264
2023/4/13 5:00,9149,3231,4732,959,154,498,0,0,11,0,790,-1226
2023/4/13 6:00,8898,3233,4492,881,154,499,468,0,6,0,523,-1358
2023/4/13 7:00,8253,3235,3391,605,154,452,2333,0,15,0,-306,-1626
2023/4/13 8:00,8414,3232,2818,479,154,387,4066,469,6,0,-522,-2206
2023/4/13 9:00,8939,3233,2528,419,154,385,5142,1564,3,0,-477,-2448
2023/4/13 10:00,9053,3233,2417,410,152,386,5530,2691,2,0,-629,-2448
2023/4/13 11:00,9156,3233,2428,386,152,388,5747,3426,1,0,-741,-2438
2023/4/13 12:00,8846,3234,2338,360,152,386,5985,3410,2,0,-1261,-2350
2023/4/13 13:00,9055,3232,2564,366,152,374,6121,2796,2,0,-1340,-2416
2023/4/13 14:00,9050,3232,2780,361,152,374,5701,2260,5,0,-1165,-2390
2023/4/13 15:00,8879,3232,3076,376,153,371,4876,1316,5,0,-864,-2346
2023/4/13 16:00,8966,3233,3568,428,153,391,3835,189,8,0,-888,-1762
2023/4/13 17:00,8912,3233,4579,538,153,455,1725,0,13,0,94,-1878
2023/4/13 18:00,9063,3232,4979,907,153,475,187,0,21,0,757,-1648
2023/4/13 19:00,9101,3228,5091,972,154,481,0,0,26,0,691,-1542
2023/4/13 20:00,8745,3228,5207,935,155,480,0,0,27,0,267,-1554
2023/4/13 21:00,8341,3230,5122,894,155,479,0,0,40,0,27,-1606
2023/4/13 22:00,8071,3231,5124,636,155,479,0,0,63,0,21,-1638
2023/4/13 23:00,7825,3233,4947,454,155,475,0,0,74,0,5,-1518
2023/4/14 0:00,7338,3232,4411,393,155,478,0,0,78,0,-29,-1380
2023/4/14 1:00,7217,3232,4099,417,155,479,0,0,83,0,-50,-1198
2023/4/14 2:00,7677,3233,4906,521,155,481,0,0,69,0,-20,-1668
2023/4/14 3:00,8284,3233,5298,768,155,482,0,0,49,0,57,-1758
2023/4/14 4:00,8687,3232,5350,975,155,481,0,0,46,0,174,-1726
2023/4/14 5:00,8666,3233,5284,961,156,482,0,0,50,0,98,-1598
2023/4/14 6:00,8408,3233,4752,784,156,483,258,0,63,0,1,-1322
2023/4/14 7:00,8280,3234,3809,621,155,482,900,0,74,0,-187,-808
2023/4/14 8:00,8835,3232,3936,415,155,480,1042,0,79,0,-296,-208
2023/4/14 9:00,9211,3233,3600,346,154,480,1299,0,94,0,-9,14
2023/4/14 10:00,9205,3232,3293,342,154,478,1631,0,95,0,-18,-2
2023/4/14 11:00,9370,3234,3653,358,153,479,1345,0,107,0,115,-74
2023/4/14 12:00,8945,3232,3570,340,153,480,1246,0,96,0,92,-264
2023/4/14 13:00,9386,3233,4283,348,154,479,1235,0,102,0,108,-556
2023/4/14 14:00,9398,3230,4117,346,153,480,952,0,133,0,5,-18
2023/4/14 15:00,9398,3233,4393,350,153,480,627,0,155,0,15,-8
2023/4/14 16:00,9515,3233,5016,382,153,481,298,0,186,0,10,-244
2023/4/14 17:00,9515,3231,5554,734,153,480,97,0,202,0,10,-946
2023/4/14 18:00,9699,3229,5731,860,152,481,7,0,225,0,268,-1254
2023/4/14 19:00,9503,3229,5693,882,152,476,0,0,245,0,132,-1306
2023/4/14 20:00,9121,3231,5510,946,152,475,0,0,233,0,26,-1452
2023/4/14 21:00,8716,3230,5324,819,152,473,0,0,168,0,0,-1450
2023/4/14 22:00,8366,3230,5024,726,152,474,0,0,147,0,5,-1392
2023/4/14 23:00,8005,3229,4539,629,152,477,0,0,137,0,0,-1158
2023/4/15 0:00,7490,3232,4243,700,152,477,0,0,137,0,-121,-1330
2023/4/15 1:00,7313,3230,3975,723,151,474,0,0,147,0,-153,-1234
2023/4/15 2:00,7728,3230,4110,862,151,474,0,0,127,0,-14,-1212
2023/4/15 3:00,8295,3230,5143,968,151,478,0,0,117,0,6,-1798
2023/4/15 4:00,8439,3230,5154,1069,151,476,0,0,82,0,-1,-1722
2023/4/15 5:00,8173,3232,4935,1061,151,475,0,0,57,0,-4,-1734
2023/4/15 6:00,7737,3230,4348,1043,151,477,17,0,31,0,-2,-1558
2023/4/15 7:00,7762,3232,4369,955,151,477,161,0,32,0,-1,-1614
2023/4/15 8:00,8172,3230,4805,807,151,477,473,0,30,0,3,-1804
2023/4/15 9:00,8325,3231,4385,796,150,475,1185,0,22,0,-21,-1898
2023/4/15 10:00,8247,3231,3205,775,151,477,2437,0,30,0,-375,-1684
2023/4/15 11:00,8317,3230,3073,824,150,478,2448,0,64,0,-344,-1606
2023/4/15 12:00,8251,3231,3254,804,150,478,2156,0,79,0,-95,-1806
2023/4/15 13:00,8318,3230,3580,799,150,476,1771,0,98,0,-2,-1784
2023/4/15 14:00,8126,3230,3599,797,151,478,1502,0,136,0,-9,-1758
2023/4/15 15:00,8180,3230,3817,831,151,477,1217,0,163,0,4,-1710
2023/4/15 16:00,8226,3230,4064,949,151,479,927,0,177,0,-3,-1748
2023/4/15 17:00,8443,3230,4524,1102,152,478,449,0,173,0,113,-1778
2023/4/15 18:00,8740,3229,4525,1195,153,478,69,0,161,0,730,-1800
2023/4/15 19:00,8657,3227,4526,1171,155,479,0,0,158,0,625,-1684
2023/4/15 20:00,8406,3229,4517,1112,155,479,0,0,167,0,415,-1668
2023/4/15 21:00,8031,3230,4446,968,155,479,0,0,166,0,91,-1504
2023/4/15 22:00,7678,3230,4274,895,155,479,0,0,148,0,-1,-1502
2023/4/15 23:00,7439,3231,3934,827,155,482,0,0,121,0,-17,-1294
2023/4/16 0:00,7066,3232,3993,772,155,483,0,0,100,0,-15,-1654
2023/4/16 1:00,6959,3230,3907,757,155,481,0,0,81,0,-18,-1634
2023/4/16 2:00,7332,3231,4095,760,156,481,0,0,82,0,175,-1648
2023/4/16 3:00,7927,3231,4186,1030,156,481,0,0,82,0,535,-1774
2023/4/16 4:00,8213,3231,4193,1117,156,479,0,0,83,0,646,-1692
2023/4/16 5:00,8012,3232,4010,1096,156,478,0,0,95,0,563,-1618
2023/4/16 6:00,7285,3230,3076,967,156,468,478,0,114,0,306,-1510
2023/4/16 7:00,6949,3231,2469,835,156,396,1739,103,63,0,-502,-1438